Regional Weather Roundup
Issued by NWS

Home | Current Version | Previous Version | Text Only | Print | Product List | Glossary On
Versions: 1 2 3 4 5 6 7 8 9 10 11 12 13 14 15 16 17 18 19 20 21 22 23 24 25 26 27 28 29 30 31 32 33 34 35 36 37 38 39 40 41 42 43 44 45 46 47 48 49 50
000
ASUS43 KTOP 061308
RWRKS

WEATHER ROUNDUP FOR KANSAS
NATIONAL WEATHER SERVICE GOODLAND KS
800 AM CDT WED MAY 06 2015

NOTE:  "FAIR" INDICATES FEW OR NO CLOUDS BELOW 12,000 FEET WITH NO
SIGNIFICANT WEATHER AND/OR OBSTRUCTIONS TO VISIBILITY.

KSZ001>006-013>018-027>032-041>047-061400-
NORTHWEST KANSAS

CITY           SKY/WX    TMP DP  RH WIND       PRES   REMARKS
GOODLAND       CLOUDY    51  50  96 S10       29.70F
HAYS           CLOUDY    57  52  82 S14       29.75S
HILL CITY      CLOUDY    61  58  90 S7        29.73S
RUSSELL        PTSUNNY   60  58  92 SE17G23   29.75S
$$

KSZ061>065-074>080-084>089-061400-
SOUTHWEST KANSAS

CITY           SKY/WX    TMP DP  RH WIND       PRES   REMARKS
DODGE CITY     CLOUDY    56  53  90 S17G26    29.75F
ELKHART          N/A     51  43  74 SW10        N/A
GARDEN CITY    CLOUDY    52  51  97 S14       29.70F
GREAT BEND     CLOUDY    61  55  82 S18       29.77S
LIBERAL        SUNNY     55  52  88 S14       29.74S
PRATT          CLOUDY    57  55  94 S14G22    29.81S
$$

KSZ066>073-081>083-090>101-061400-
SOUTHEAST KANSAS

CITY           SKY/WX    TMP DP  RH WIND       PRES   REMARKS
CHANUTE        LGT RAIN  63  60  90 S16G23    29.93S
COFFEYVILLE    CLOUDY    60  59  96 S13       29.96R
HUTCHINSON     CLOUDY    60  57  89 S15       29.83S
MEDICINE LODGE   N/A     60  59  96 SE8       29.81S
NEWTON         CLOUDY    57  54  88 S17G25    29.87F THUNDER
PARSONS        LGT RAIN  61  60  97 SE8G18    29.96R
WICHITA INTL   LGT RAIN  61  58  90 S15       29.86S
WICHITA JABRA  CLOUDY    60  58  92 S15         N/A
WICHITA MCCONL LGT RAIN  61  59  94 SE14      29.87F
WINFIELD       CLOUDY    60  58  92 SE21G28   29.91R
$$

KSZ007>012-019>026-033>040-048>060-102>105-061400-
NORTHEAST KANSAS

CITY           SKY/WX    TMP DP  RH WIND       PRES   REMARKS
CONCORDIA      CLOUDY    61  58  90 S16       29.80R
EMPORIA        CLOUDY    61  58  90 S15       29.87S
LAWRENCE       CLOUDY    65  59  81 S17G26    29.91R
MANHATTAN      CLOUDY    63  60  90 S12       29.84R
MARYSVILLE     CLOUDY    63  61  94 S16       29.84R
OLATHE IND     CLOUDY    65  59  81 S25G33    29.93S
OLATHE EXE     CLOUDY    65  59  81 S16       29.93S
SALINA         CLOUDY    62  57  83 S16G24    29.81F
TOPEKA BILLARD PTSUNNY   65  60  84 S16G26    29.89R
TOPEKA FORBES  CLOUDY    65  60  84 S17       29.88R
$$



USA.gov is the U.S. government's official web portal to all federal, state and local government web resources and services.